Location: Hermaringen
(48.5952°N, 10.2585°E)
Time: 08:43:31
(UTC+00:00)

SL-16 R/B - Pass Details

Date: 18 November 2025
Orbit: 985 x 1006 km, 99.8° (Epoch: 13 December)

Event Time Altitude Azimuth Distance (km) Brightness Sun altitude
Rises 16:44:01 0° 13° (NNE) 3,748 5.3 -11.2°
Reaches altitude 10° 16:46:33 10° 9° (N) 2,793 4.6 -11.6°
Maximum altitude 16:52:39 55° 294° (WNW) 1,193 3.3 -12.6°
Drops below altitude 10° 16:58:41 10° 218° (SW) 2,767 5.7 -13.5°
Sets 17:01:12 0° 214° (SW) 3,710 6.3 -13.9°
